TimeCDT,TemperatureF,Dew PointF,Humidity,Sea Level PressureIn,VisibilityMPH,Wind Direction,Wind SpeedMPH,Gust SpeedMPH,PrecipitationIn,Events,Conditions,WindDirDegrees,DateUTC
12:15 AM,57.2,51.8,82,29.51,10.0,West,6.9,-,N/A,,Mostly Cloudy,270,2012-10-18 05:15:00
12:35 AM,57.2,51.8,82,29.54,10.0,SW,12.7,-,N/A,,Overcast,220,2012-10-18 05:35:00
12:55 AM,57.2,51.8,82,29.55,10.0,SW,15.0,-,0.01,,Overcast,220,2012-10-18 05:55:00
1:15 AM,53.6,46.4,77,29.57,10.0,WNW,15.0,19.6,0.03,,Overcast,290,2012-10-18 06:15:00
1:55 AM,53.6,44.6,72,29.59,10.0,West,4.6,-,0.04,,Overcast,260,2012-10-18 06:55:00
2:15 AM,53.6,44.6,72,29.58,10.0,WSW,5.8,-,N/A,,Overcast,250,2012-10-18 07:15:00
2:35 AM,53.6,46.4,77,29.59,10.0,WSW,8.1,-,N/A,,Overcast,240,2012-10-18 07:35:00
2:55 AM,53.6,44.6,72,29.60,10.0,WSW,8.1,-,N/A,,Overcast,250,2012-10-18 07:55:00
3:15 AM,53.6,44.6,72,29.61,10.0,WSW,10.4,-,N/A,,Mostly Cloudy,240,2012-10-18 08:15:00
3:35 AM,53.6,44.6,72,29.61,10.0,WSW,10.4,-,N/A,,Partly Cloudy,250,2012-10-18 08:35:00
3:55 AM,53.6,44.6,72,29.62,10.0,WSW,10.4,17.3,N/A,,Clear,240,2012-10-18 08:55:00
4:15 AM,51.8,42.8,71,29.63,10.0,WSW,9.2,-,N/A,,Clear,240,2012-10-18 09:15:00
4:35 AM,51.8,42.8,71,29.64,10.0,WSW,9.2,-,N/A,,Clear,240,2012-10-18 09:35:00
4:55 AM,51.8,42.8,71,29.65,10.0,SW,8.1,-,N/A,,Clear,230,2012-10-18 09:55:00
5:15 AM,50.0,42.8,76,29.65,10.0,SW,8.1,-,N/A,,Clear,220,2012-10-18 10:15:00
5:35 AM,50.0,42.8,76,29.66,10.0,SW,8.1,-,N/A,,Clear,220,2012-10-18 10:35:00
5:55 AM,50.0,41.0,71,29.66,10.0,SW,9.2,-,N/A,,Clear,220,2012-10-18 10:55:00
6:35 AM,48.2,39.2,71,29.65,10.0,SW,5.8,-,N/A,,Clear,220,2012-10-18 11:35:00
6:55 AM,46.4,39.2,76,29.66,10.0,SW,8.1,-,N/A,,Clear,220,2012-10-18 11:55:00
7:15 AM,46.4,39.2,76,29.67,10.0,SSW,9.2,-,N/A,,Clear,210,2012-10-18 12:15:00
7:35 AM,48.2,41.0,76,29.68,10.0,SW,9.2,-,N/A,,Clear,220,2012-10-18 12:35:00
7:55 AM,50.0,41.0,71,29.68,10.0,SSW,10.4,-,N/A,,Clear,210,2012-10-18 12:55:00
8:15 AM,51.8,42.8,71,29.69,10.0,SW,10.4,-,N/A,,Clear,220,2012-10-18 13:15:00
8:35 AM,51.8,42.8,71,29.69,10.0,SSW,12.7,-,N/A,,Clear,210,2012-10-18 13:35:00
8:55 AM,53.6,42.8,67,29.69,10.0,SSW,13.8,-,N/A,,Clear,210,2012-10-18 13:55:00
9:15 AM,55.4,42.8,63,29.69,10.0,SW,12.7,-,N/A,,Clear,220,2012-10-18 14:15:00
9:35 AM,55.4,42.8,63,29.70,10.0,SSW,13.8,-,N/A,,Clear,210,2012-10-18 14:35:00
9:55 AM,57.2,44.6,63,29.69,10.0,SSW,15.0,-,N/A,,Clear,210,2012-10-18 14:55:00
10:15 AM,59.0,42.8,55,29.69,10.0,SW,15.0,20.7,N/A,,Clear,220,2012-10-18 15:15:00
10:35 AM,60.8,42.8,52,29.70,10.0,SW,18.4,-,N/A,,Clear,220,2012-10-18 15:35:00
10:55 AM,60.8,42.8,52,29.69,10.0,SW,18.4,26.5,N/A,,Partly Cloudy,230,2012-10-18 15:55:00
11:15 AM,62.6,42.8,48,29.69,10.0,SW,23.0,29.9,N/A,,Clear,220,2012-10-18 16:15:00
11:35 AM,62.6,42.8,48,29.69,10.0,SW,21.9,31.1,N/A,,Clear,220,2012-10-18 16:35:00
11:55 AM,62.6,42.8,48,29.69,10.0,SW,24.2,32.2,N/A,,Clear,230,2012-10-18 16:55:00
12:15 PM,64.4,41.0,42,29.69,10.0,SW,23.0,33.4,N/A,,Partly Cloudy,220,2012-10-18 17:15:00
12:35 PM,64.4,41.0,42,29.68,10.0,SW,23.0,32.2,N/A,,Mostly Cloudy,220,2012-10-18 17:35:00
12:55 PM,64.4,37.4,37,29.68,10.0,WSW,24.2,29.9,N/A,,Scattered Clouds,240,2012-10-18 17:55:00
1:15 PM,64.4,37.4,37,29.67,10.0,SW,19.6,26.5,N/A,,Partly Cloudy,230,2012-10-18 18:15:00
1:35 PM,64.4,37.4,37,29.66,10.0,WSW,15.0,25.3,N/A,,Clear,240,2012-10-18 18:35:00
1:55 PM,64.4,35.6,34,29.65,10.0,SW,19.6,31.1,N/A,,Partly Cloudy,220,2012-10-18 18:55:00
2:15 PM,66.2,35.6,32,29.65,10.0,WSW,21.9,32.2,N/A,,Partly Cloudy,240,2012-10-18 19:15:00
2:35 PM,64.4,33.8,32,29.64,10.0,SW,19.6,33.4,N/A,,Clear,230,2012-10-18 19:35:00
2:55 PM,66.2,33.8,30,29.64,10.0,SW,23.0,28.8,N/A,,Partly Cloudy,230,2012-10-18 19:55:00
3:15 PM,64.4,33.8,32,29.64,10.0,SW,23.0,28.8,N/A,,Partly Cloudy,230,2012-10-18 20:15:00
3:35 PM,64.4,32.0,30,29.64,10.0,SW,24.2,35.7,N/A,,Clear,230,2012-10-18 20:35:00
3:55 PM,64.4,32.0,30,29.64,10.0,SW,24.2,29.9,N/A,,Partly Cloudy,230,2012-10-18 20:55:00
4:15 PM,64.4,32.0,30,29.64,10.0,WSW,13.8,26.5,N/A,,Clear,240,2012-10-18 21:15:00
4:55 PM,62.6,33.8,34,29.65,10.0,WSW,15.0,26.5,N/A,,Clear,240,2012-10-18 21:55:00
5:15 PM,62.6,33.8,34,29.66,10.0,WSW,15.0,23.0,N/A,,Clear,240,2012-10-18 22:15:00
5:35 PM,60.8,33.8,36,29.66,10.0,SW,13.8,23.0,N/A,,Clear,230,2012-10-18 22:35:00
5:55 PM,59.0,33.8,39,29.67,10.0,SW,13.8,19.6,N/A,,Clear,230,2012-10-18 22:55:00
6:15 PM,57.2,33.8,41,29.67,10.0,SW,11.5,-,N/A,,Clear,230,2012-10-18 23:15:00
6:35 PM,57.2,33.8,41,29.68,10.0,SW,13.8,-,N/A,,Clear,220,2012-10-18 23:35:00
6:55 PM,55.4,33.8,44,29.68,10.0,SW,12.7,-,N/A,,Clear,220,2012-10-18 23:55:00
7:15 PM,55.4,33.8,44,29.68,10.0,SSW,11.5,-,N/A,,Clear,210,2012-10-19 00:15:00
7:35 PM,55.4,33.8,44,29.69,10.0,SSW,11.5,-,N/A,,Clear,210,2012-10-19 00:35:00
7:55 PM,53.6,32.0,44,29.69,10.0,SSW,10.4,-,N/A,,Clear,210,2012-10-19 00:55:00
8:15 PM,51.8,33.8,50,29.69,10.0,SSW,8.1,-,N/A,,Clear,210,2012-10-19 01:15:00
8:35 PM,51.8,32.0,47,29.68,10.0,SSW,8.1,-,N/A,,Clear,210,2012-10-19 01:35:00
8:55 PM,50.0,32.0,50,29.68,10.0,SSW,10.4,-,N/A,,Clear,200,2012-10-19 01:55:00
9:15 PM,51.8,32.0,47,29.68,10.0,SSW,10.4,-,N/A,,Clear,210,2012-10-19 02:15:00
9:35 PM,51.8,33.8,50,29.67,10.0,SSW,11.5,-,N/A,,Clear,200,2012-10-19 02:35:00
9:55 PM,51.8,33.8,50,29.67,10.0,SSW,11.5,-,N/A,,Mostly Cloudy,210,2012-10-19 02:55:00
10:15 PM,53.6,33.8,47,29.66,10.0,SSW,12.7,-,N/A,,Mostly Cloudy,200,2012-10-19 03:15:00
10:35 PM,51.8,33.8,50,29.65,10.0,South,10.4,-,N/A,,Partly Cloudy,190,2012-10-19 03:35:00
11:15 PM,51.8,32.0,47,29.64,10.0,SSW,10.4,-,N/A,,Clear,200,2012-10-19 04:15:00
11:35 PM,51.8,32.0,47,29.64,10.0,SSW,13.8,-,N/A,,Scattered Clouds,200,2012-10-19 04:35:00
11:55 PM,51.8,33.8,50,29.63,10.0,SSW,11.5,-,N/A,,Mostly Cloudy,200,2012-10-19 04:55:00